Home > Time Zones > World Clock > Weather > Italy > Genoa > Past weeks

Flag for Italy Weather past 2 weeks in Genoa, Italy

Now
50 °F

Rain. Mostly cloudy.


Feels Like: 45 °F
Forecast: 53 / 62 °F
Wind: 13 mph from Northeast

Location: Genova / Sestri


UV Index: 3 (Moderate)

Visibility: 4 mi


Pressure: 29.56 "Hg

Humidity: 82%

Dew point: 45 °F

Location of GenoaLocation

Historic Weather in Genoa

°F

Genoa temperature yesterday

Maximum temperature yesterday: 63 °F (at 2:50 PM)
Minimum temperature yesterday: 50 °F (at 4:20 AM)
Average temperature yesterday: 57 °F

Past Weeks' High & Low Weather Summary

 TemperatureHumidityPressure
High75 °F (Apr 5, 2:20 PM)100% (Apr 19, 3:20 AM)30.15 "Hg (Apr 19, 3:20 AM)
Low48 °F (Apr 17, 6:50 AM)8% (Apr 15, 5:20 PM)29.56 "Hg (Apr 4, 6:50 AM)
Average60 °F67%29.98 "Hg
* Reported Apr 4 6:20 AM — Apr 19 6:50 AM, Genoa, Weather by CustomWeather, © 2014

Note: Actual official high and low records may vary slightly from our data, if they occured in-between our weather recording intervals... More about our weather records

Advertising

Historic Weather Conditions — Data for Previous 24 hours

 ConditionsComfort  
Time TempWeatherWind HumidityBarometerVisibility
6:50 AM
Apr 19
50 °FRain. Mostly cloudy.13 mph82%29.56 "Hg4 mi
5:20 AM50 °FThunderstorms. Partly cloudy.13 mph88%29.56 "Hg2 mi
4:50 AM52 °FThunderstorms. Partly cloudy.8 mph88%29.59 "Hg2 mi
4:20 AM52 °FThunderstorms. Partly cloudy.6 mph88%29.59 "Hg2 mi
3:50 AM52 °FThunderstorms. Partly cloudy.9 mph100%29.56 "Hg2 mi
3:20 AM52 °FStrong thunderstorms. Partly cloudy.3 mph100%29.56 "Hg2 mi
2:50 AM54 °FStrong thunderstorms. Partly cloudy.5 mph94%29.56 "Hg1 mi
2:20 AM54 °FHeavy rain. Partly cloudy.5 mph94%29.59 "Hg2 mi
1:50 AM55 °FRain. Passing clouds.10 mph88%29.59 "Hg2 mi
1:20 AM57 °FPassing clouds.7 mph88%29.59 "HgN/A
12:50 AM59 °FPassing clouds.5 mph82%29.62 "HgN/A
12:20 AM57 °FPassing clouds.7 mph82%29.62 "HgN/A
11:50 PM
Apr 18
59 °FPassing clouds.12 mph77%29.62 "HgN/A
10:50 PM59 °FPassing clouds.13 mph82%29.65 "HgN/A
10:20 PM59 °FPassing clouds.13 mph82%29.68 "HgN/A
9:50 PM59 °FPassing clouds.10 mph82%29.68 "HgN/A
9:20 PM59 °FPassing clouds.12 mph82%29.68 "HgN/A
8:50 PM59 °FScattered clouds.9 mph82%29.68 "HgN/A
8:20 PM59 °FScattered clouds.10 mph82%29.68 "HgN/A
7:50 PM59 °FScattered clouds.12 mph82%29.68 "HgN/A
7:20 PM59 °FBroken clouds.10 mph82%29.71 "HgN/A
6:50 PM59 °FBroken clouds.9 mph82%29.71 "HgN/A
6:20 PM59 °FScattered clouds.14 mph82%29.71 "HgN/A
5:50 PM59 °FPartly sunny.8 mph82%29.74 "HgN/A
5:20 PM61 °FBroken clouds.6 mph77%29.74 "HgN/A
4:50 PM61 °FScattered clouds.7 mph72%29.74 "HgN/A
4:20 PM61 °FScattered clouds.9 mph77%29.74 "HgN/A
3:50 PM61 °FScattered clouds.10 mph77%29.77 "HgN/A
3:20 PM61 °FScattered clouds.8 mph77%29.77 "HgN/A
2:50 PM63 °FScattered clouds.7 mph73%29.77 "HgN/A
2:20 PM61 °FScattered clouds.7 mph72%29.80 "HgN/A
1:50 PM59 °FPartly sunny.13 mph82%29.80 "HgN/A
1:20 PM61 °FScattered clouds.13 mph77%29.80 "HgN/A
12:50 PM61 °FScattered clouds.10 mph77%29.83 "HgN/A
12:20 PM61 °FScattered clouds.10 mph72%29.83 "HgN/A
11:50 AM61 °FScattered clouds.10 mph72%29.83 "HgN/A
11:20 AM61 °FScattered clouds.10 mph72%29.86 "HgN/A
10:50 AM61 °FScattered clouds.12 mph72%29.86 "HgN/A
10:20 AM61 °FScattered clouds.10 mph72%29.86 "HgN/A
9:50 AM59 °FScattered clouds.10 mph77%29.86 "HgN/A
9:20 AM59 °FScattered clouds.3 mph63%29.86 "HgN/A
8:50 AM55 °FScattered clouds.5 mph63%29.86 "HgN/A
8:20 AM54 °FPassing clouds.5 mph58%29.86 "HgN/A
7:50 AM54 °FSunny.6 mph58%29.86 "Hg10 mi
7:20 AM52 °FClear.5 mph54%29.86 "Hg10 mi
Weather by CustomWeather, © 2014

See weather overview